Date String (YYYY-MM-DD hh:mm:ss) UTC,Instrument flags,absolute air pressure of the measurement (hPa),sample flow rate (lpm),inlet stack bypass flow (lpm),air temperature of the measurement (°C),ambient temperature measured by the external sensor (°C),aerosol sample conditioner tube jacket temperature (°C),OPC LED temperature (°C),internal box temperature (°C),relative humidity of the measurement (%),span deviation,mass concentration of particles derived from Lorenz-Mie calculation of OPC scattering (μg/m³),mass concentration of particles derived from Lorenz-Mie calculation of OPC scattering (μg/m³),mass concentration of particles derived from Lorenz-Mie calculation of OPC scattering (μg/m³)
DateTimeUTC,F1_M11,P_M11,Q1_M11,Q2_M11,T1_M11,T2_M11,T3_M11,T4_M11,T5_M11,U1_M11,ZSPAN_M11,X2_M11,X0_M11,X1_M11
2024-04-29 04:00:00,SystemResetWarning,0826.2,4.99,000.00,025.7,024.8,000.0,034.3,027.5,022.2,0000.0,0001.74,0005.62,0001.25
2024-04-29 04:01:00,SystemResetWarning,0826.2,5.01,000.00,025.7,024.8,000.0,034.3,027.5,022.4,0000.0,0001.71,0003.40,0001.24
2024-04-29 04:02:00,SystemResetWarning,0826.2,5.00,000.00,025.6,024.8,000.0,034.3,027.5,022.3,0000.0,0001.69,0003.29,0001.24
2024-04-29 04:03:00,SystemResetWarning,0826.2,4.98,000.00,025.6,024.8,000.0,034.3,027.5,022.2,0000.0,0001.69,0003.28,0001.24
2024-04-29 04:04:00,SystemResetWarning,0826.1,5.00,000.00,025.6,024.8,000.0,034.3,027.4,022.2,0000.0,0001.68,0003.20,0001.23
2024-04-29 04:05:00,SystemResetWarning,0826.1,5.01,000.00,025.6,024.7,000.0,034.3,027.4,022.2,0000.0,0001.66,0003.21,0001.21
2024-04-29 04:06:00,SystemResetWarning,0826.2,5.01,000.00,025.6,024.7,000.0,034.3,027.4,022.3,0000.0,0001.69,0003.28,0001.21
2024-04-29 04:07:00,SystemResetWarning,0826.2,4.99,000.00,025.6,024.7,000.0,034.3,027.4,022.4,0000.0,0001.68,0003.18,0001.21
2024-04-29 04:08:00,SystemResetWarning,0826.1,4.99,000.00,025.6,024.7,000.0,034.2,027.4,022.4,0000.0,0001.67,0003.28,0001.21
2024-04-29 04:09:00,SystemResetWarning,0826.2,5.00,000.00,025.6,024.7,000.0,034.2,027.4,022.3,0000.0,0001.65,0003.26,0001.20
2024-04-29 04:10:00,SystemResetWarning,0826.2,5.01,000.00,025.6,024.7,000.0,034.2,027.4,022.4,0000.0,0001.69,0003.38,0001.21
2024-04-29 04:11:00,SystemResetWarning,0826.2,5.00,000.00,025.6,024.7,000.0,034.2,027.4,022.3,0000.0,0001.71,0003.47,0001.21
2024-04-29 04:12:00,SystemResetWarning,0826.2,5.00,000.00,025.6,024.7,000.0,034.2,027.4,022.3,0000.0,0001.71,0004.30,0001.21
2024-04-29 04:13:00,SystemResetWarning,0826.2,4.99,000.00,025.6,024.7,000.0,034.2,027.4,022.3,0000.0,0001.76,0004.60,0001.21
2024-04-29 04:14:00,SystemResetWarning,0826.2,5.01,000.00,025.6,024.8,000.0,034.2,027.5,022.2,0000.0,0001.83,0004.83,0001.22
2024-04-29 04:15:00,SystemResetWarning,0826.2,5.01,000.00,025.6,024.8,000.0,034.2,027.5,022.2,0000.0,0001.85,0004.88,0001.21
2024-04-29 04:16:00,SystemResetWarning,0826.2,5.01,000.00,025.6,024.8,000.0,034.2,027.5,022.2,0000.0,0001.91,0004.96,0001.22
2024-04-29 04:17:00,SystemResetWarning,0826.2,4.99,000.00,025.6,024.8,000.0,034.2,027.5,022.3,0000.0,0001.91,0004.96,0001.23
2024-04-29 04:18:00,SystemResetWarning,0826.3,5.00,000.00,025.6,024.8,000.0,034.2,027.5,022.3,0000.0,0001.92,0004.97,0001.24
2024-04-29 04:19:00,SystemResetWarning,0826.3,5.00,000.00,025.6,024.8,000.0,034.2,027.5,022.2,0000.0,0001.93,0004.76,0001.25
2024-04-29 04:20:00,SystemResetWarning,0826.3,5.00,000.00,025.6,024.8,000.0,034.2,027.5,022.2,0000.0,0001.91,0004.29,0001.25
2024-04-29 04:21:00,SystemResetWarning,0826.3,4.99,000.00,025.6,024.8,000.0,034.2,027.5,022.1,0000.0,0001.87,0004.15,0001.25
2024-04-29 04:22:00,SystemResetWarning,0826.4,4.99,000.00,025.6,024.8,000.0,034.2,027.5,022.1,0000.0,0001.83,0004.03,0001.25
2024-04-29 04:23:00,SystemResetWarning,0826.4,5.01,000.00,025.6,024.8,000.0,034.2,027.5,022.1,0000.0,0001.85,0003.43,0001.25
2024-04-29 04:24:00,SystemResetWarning,0826.4,5.01,000.00,025.6,024.8,000.0,034.2,027.5,022.2,0000.0,0001.84,0003.52,0001.26
2024-04-29 04:25:00,SystemResetWarning,0826.4,5.01,000.00,025.6,024.8,000.0,034.2,027.5,022.2,0000.0,0001.79,0003.50,0001.26
2024-04-29 04:26:00,SystemResetWarning,0826.3,5.00,000.00,025.6,024.8,000.0,034.2,027.5,022.2,0000.0,0001.74,0003.35,0001.26
2024-04-29 04:27:00,SystemResetWarning,0826.3,4.99,000.00,025.6,024.8,000.0,034.2,027.5,022.3,0000.0,0001.70,0003.18,0001.28
2024-04-29 04:28:00,SystemResetWarning,0826.3,4.99,000.00,025.6,024.8,000.0,034.2,027.5,022.3,0000.0,0001.71,0003.16,0001.29
2024-04-29 04:29:00,SystemResetWarning,0826.3,5.00,000.00,025.7,024.8,000.0,034.2,027.5,022.2,0000.0,0001.73,0003.23,0001.31
2024-04-29 04:30:00,SystemResetWarning,0826.3,5.02,000.00,025.7,024.9,000.0,034.2,027.6,022.2,0000.0,0001.76,0003.33,0001.32
2024-04-29 04:31:00,SystemResetWarning,0826.2,5.00,000.00,025.7,024.9,000.0,034.2,027.6,022.1,0000.0,0001.78,0003.34,0001.33
2024-04-29 04:32:00,SystemResetWarning,0826.2,4.99,000.00,025.7,024.9,000.0,034.2,027.6,022.1,0000.0,0001.81,0004.17,0001.34
2024-04-29 04:33:00,SystemResetWarning,0826.2,4.99,000.00,025.7,024.9,000.0,034.2,027.6,022.0,0000.0,0001.82,0004.58,0001.36
2024-04-29 04:34:00,SystemResetWarning,0826.2,5.00,000.00,025.7,024.9,000.0,034.2,027.6,022.0,0000.0,0001.86,0004.64,0001.38
2024-04-29 04:35:00,SystemResetWarning,0826.2,5.00,000.00,025.7,024.9,000.0,034.3,027.6,022.0,0000.0,0001.88,0004.38,0001.38
2024-04-29 04:36:00,SystemResetWarning,0826.2,5.00,000.00,025.7,024.9,000.0,034.3,027.6,022.0,0000.0,0001.88,0004.56,0001.39
2024-04-29 04:37:00,SystemResetWarning,0826.2,5.00,000.00,025.7,024.9,000.0,034.3,027.6,022.0,0000.0,0001.93,0005.21,0001.42
2024-04-29 04:38:00,SystemResetWarning,0826.2,5.01,000.00,025.7,024.9,000.0,034.3,027.6,022.0,0000.0,0001.95,0005.28,0001.44
2024-04-29 04:39:00,SystemResetWarning,0826.2,5.00,000.00,025.7,024.9,000.0,034.3,027.6,022.0,0000.0,0001.97,0005.31,0001.46
2024-04-29 04:40:00,SystemResetWarning,0826.2,5.01,000.00,025.7,024.9,000.0,034.3,027.6,021.9,0000.0,0002.01,0005.61,0001.47
2024-04-29 04:41:00,SystemResetWarning,0826.2,4.99,000.00,025.7,025.0,000.0,034.3,027.6,021.8,0000.0,0002.01,0006.30,0001.48
2024-04-29 04:42:00,SystemResetWarning,0826.2,4.99,000.00,025.7,025.0,000.0,034.3,027.6,021.7,0000.0,0002.04,0006.57,0001.49
2024-04-29 04:43:00,SystemResetWarning,0826.2,5.00,000.00,025.7,025.0,000.0,034.3,027.6,021.7,0000.0,0002.05,0006.05,0001.51
2024-04-29 04:44:00,SystemResetWarning,0826.2,5.00,000.00,025.7,025.0,000.0,034.3,027.6,021.7,0000.0,0002.08,0005.49,0001.53
2024-04-29 04:45:00,SystemResetWarning,0826.2,5.02,000.00,025.7,025.0,000.0,034.3,027.6,021.8,0000.0,0002.12,0005.57,0001.56
2024-04-29 04:46:00,SystemResetWarning,0826.2,5.00,000.00,025.7,024.9,000.0,034.3,027.6,021.8,0000.0,0002.15,0005.60,0001.58
2024-04-29 04:47:00,SystemResetWarning,0826.2,4.99,000.00,025.7,025.0,000.0,034.3,027.6,021.8,0000.0,0002.14,0005.29,0001.60
2024-04-29 04:48:00,SystemResetWarning,0826.2,4.99,000.00,025.7,025.0,000.0,034.3,027.6,021.7,0000.0,0002.16,0004.70,0001.62
2024-04-29 04:49:00,SystemResetWarning,0826.3,5.02,000.00,025.7,025.0,000.0,034.3,027.6,021.6,0000.0,0002.20,0004.88,0001.63
2024-04-29 04:50:00,SystemResetWarning,0826.2,5.00,000.00,025.8,025.0,000.0,034.3,027.6,021.5,0000.0,0002.21,0005.21,0001.63
2024-04-29 04:51:00,SystemResetWarning,0826.2,4.99,000.00,025.8,025.0,000.0,034.3,027.7,021.3,0000.0,0002.19,0005.69,0001.64
2024-04-29 04:52:00,SystemResetWarning,0826.2,4.99,000.00,025.8,025.0,000.0,034.3,027.7,020.9,0000.0,0002.24,0005.07,0001.67
2024-04-29 04:53:00,SystemResetWarning,0826.2,5.00,000.00,025.8,025.0,000.0,034.3,027.7,020.8,0000.0,0002.24,0005.44,0001.67
2024-04-29 04:54:00,SystemResetWarning,0826.2,5.01,000.00,025.8,025.0,000.0,034.3,027.7,020.8,0000.0,0002.27,0006.44,0001.66
2024-04-29 04:55:00,SystemResetWarning,0826.2,5.01,000.00,025.8,025.0,000.0,034.3,027.7,020.7,0000.0,0002.28,0006.62,0001.64
2024-04-29 04:56:00,SystemResetWarning,0826.2,5.00,000.00,025.8,025.0,000.0,034.3,027.7,020.7,0000.0,0002.24,0006.56,0001.62
2024-04-29 04:57:00,SystemResetWarning,0826.2,5.00,000.00,025.8,025.1,000.0,034.3,027.7,020.8,0000.0,0002.25,0006.74,0001.61
2024-04-29 04:58:00,SystemResetWarning,0826.2,4.99,000.00,025.8,025.1,000.0,034.3,027.7,020.8,0000.0,0002.25,0006.93,0001.59
2024-04-29 04:59:00,SystemResetWarning,0826.2,5.01,000.00,025.8,025.1,000.0,034.3,027.7,020.8,0000.0,0002.23,0006.97,0001.58
